Flag for India Weather past 2 weeks in Faridkot, Punjab, India

Now
43 °F

Fog.


Feels Like: 39 °F
Forecast: 41 / 64 °F
Wind: 6 mph from Northwest

Location: Lahore Airport

Current Time: Jan 28, 2015 at 4:46:21 AM

Latest Report: Jan 28, 2015 at 4:25 AM


Visibility: 2 mi

Pressure: 30.09 "Hg

Humidity: 81%

Dew point: 37 °F

Location of FaridkotLocation

Historic Weather in Faridkot — Graph

°F

Faridkot temperature yesterday

Maximum temperature yesterday: 57 °F (at 1:30 PM)
Minimum temperature yesterday: 41 °F (at 6:55 AM)
Average temperature yesterday: 50 °F

Past Weeks' High & Low Weather Summary

 TemperatureHumidityPressure
High70 °F (Jan 16, 3:00 PM)100% (Jan 13, 4:25 AM)30.24 "Hg (Jan 13, 4:25 AM)
Low41 °F (Jan 27, 6:55 AM)31% (Jan 17, 3:30 PM)29.92 "Hg (Jan 14, 3:55 AM)
Average54 °F76%30.12 "Hg
* Reported Jan 13 3:25 AM — Jan 28 3:25 AM, Faridkot, Weather by CustomWeather, © 2014

Note: Actual official high and low records may vary slightly from our data, if they occured in-between our weather recording intervals... More about our weather records

Advertising

Faridkot weather history for previous 24 hours

 ConditionsComfort  
Time TempWeatherWind HumidityBarometerVisibility
3:25 AM
Jan 28
43 °FFog.6 mph87%30.09 "Hg2 mi
2:25 AM45 °FFog.5 mph87%30.12 "Hg2 mi
1:55 AM45 °FFog.N/A87%30.12 "Hg2 mi
12:55 AM46 °FFog.5 mph82%30.12 "Hg2 mi
12:25 AM46 °FFog.5 mph82%30.15 "Hg2 mi
11:55 PM
Jan 27
46 °FFog.5 mph87%30.15 "Hg2 mi
11:25 PM46 °FFog.3 mph87%30.15 "Hg2 mi
10:25 PM48 °FClear.3 mph87%30.15 "Hg2 mi
9:55 PM50 °FClear.3 mph82%30.15 "Hg2 mi
9:25 PM50 °FClear.No wind82%30.15 "Hg2 mi
8:55 PM52 °FClear.3 mph77%30.15 "Hg2 mi
8:25 PM52 °FClear.3 mph77%30.12 "Hg2 mi
7:55 PM54 °FClear.No wind72%30.12 "Hg2 mi
7:25 PM54 °FClear.3 mph72%30.12 "Hg2 mi
6:55 PM55 °FClear.3 mph67%30.12 "Hg2 mi
6:30 PM55 °FClear.5 mph67%30.12 "Hg2 mi
5:55 PM57 °FClear.6 mph63%30.12 "Hg1 mi
5:30 PM57 °FClear.5 mph63%30.12 "Hg1 mi
5:00 PM57 °FScattered clouds.5 mph67%30.12 "Hg1 mi
4:25 PM57 °FScattered clouds.7 mph67%30.12 "Hg1 mi
3:59 PM57 °FScattered clouds.6 mph72%30.15 "Hg1 mi
3:30 PM57 °FScattered clouds.7 mph72%30.15 "Hg1 mi
3:00 PM57 °FScattered clouds.5 mph72%30.15 "Hg1 mi
2:30 PM57 °FScattered clouds.6 mph72%30.15 "Hg1 mi
2:00 PM57 °FPassing clouds.7 mph72%30.18 "Hg1 mi
1:30 PM57 °FPassing clouds.9 mph72%30.18 "Hg1 mi
12:55 PM55 °FPassing clouds.9 mph77%30.18 "Hg1 mi
12:25 PM54 °FFog.9 mph82%30.21 "Hg1 mi
12:00 PM52 °FFog.3 mph94%30.21 "Hg1 mi
11:30 AM52 °FFog.3 mph94%30.21 "Hg0 mi
11:00 AM50 °FFog.3 mph94%30.21 "Hg0 mi
10:30 AM50 °FFog.5 mph82%30.21 "Hg1 mi
9:30 AM45 °FFog.3 mph93%30.18 "Hg1 mi
8:55 AM43 °FFog.No wind100%30.18 "Hg1 mi
8:25 AM43 °FFog.3 mph100%30.15 "Hg0 mi
7:55 AM43 °FFog.3 mph100%30.15 "Hg0 mi
7:25 AM41 °FFog.No wind100%30.15 "Hg0 mi
6:55 AM41 °FFog.No wind100%30.12 "Hg0 mi
6:25 AM43 °FFog.No wind100%30.12 "Hg0 mi
5:30 AM43 °FFog.No wind100%30.09 "Hg0 mi
4:55 AM45 °FFog.No wind100%30.09 "Hg0 mi
4:25 AM46 °FFog.No wind87%30.09 "Hg1 mi
Weather by CustomWeather, © 2014

See weather overviewHow to use our weather pages